Slayton, MN

2:20 AM CST on December 06, 2016 (GMT -0600)
Slayton

Weather History for KDVP - February, 2014

Change the Weather History Date:

Friday, February 7, 2014

  Actual Average (KOTG) Record (KOTG)
Temperature  
Mean Temperature 3 °F -  
Max Temperature 12 °F 26 °F 54 °F (1987)
Min Temperature -6 °F 10 °F -17 °F (1979)
Degree Days  
Heating Degree Days 62    
Moisture  
Dew Point -5 °F    
Average Humidity 73    
Maximum Humidity 84    
Minimum Humidity 60    
Precipitation  
Precipitation 0.00 in - - ()
Sea Level Pressure  
Sea Level Pressure 30.12 in    
Wind  
Wind Speed 12 mph (SW)    
Max Wind Speed 16 mph    
Max Gust Speed 20 mph    
Visibility 10 miles    
Events      
Averages and records for this station are not official NWS values.
T = Trace of Precipitation, MM = Missing Value Source: NWS Daily Summary

Daily Weather History Graph

Daily Weather History Graph

Search for Another Location

Airport or City:

Trip Planner

Search our weather history database for the weather conditions in past years. The results will help you decide how hot, cold, wet, or windy it might be!

Date:

Astronomy

Feb. 07, 2014 Rise Set
Actual Time 7:33 AM CST 5:41 PM CST
Civil Twilight 7:03 AM CST 6:12 PM CST
Nautical Twilight 6:28 AM CST 6:46 PM CST
Astronomical Twilight 5:55 AM CST 7:19 PM CST
Moon 11:51 AM CST (2/7) 1:51 AM CST (2/7)
Length of Visible Light 11h 09m
Length of Day
10h 08m
First Quarter, 59% of the Moon is Illuminated
Feb 7
First Quarter
Feb 14
Full
Feb 22
Last Quarter
Mar 1
New
Mar 8
First Quarter

Hourly Weather History & Observations

Time (CST) Temp. Windchill Dew Point Humidity Pressure Visibility Wind Dir Wind Speed Gust Speed Precip Events Conditions
12:14 AM -3.3 °F -22.8 °F -10.3 °F 72% 30.20 in 10.0 mi West 13.8 mph - N/A   Clear
12:34 AM -3.3 °F -23.6 °F -10.3 °F 72% 30.20 in 10.0 mi West 15.0 mph 19.6 mph N/A   Clear
12:54 AM -4.2 °F -23.2 °F -11.2 °F 72% 30.19 in 10.0 mi WSW 12.7 mph 19.6 mph N/A   Clear
1:14 AM -4.9 °F -24.1 °F -11.2 °F 74% 30.19 in 10.0 mi WSW 12.7 mph - N/A   Clear
1:34 AM -4.9 °F -24.9 °F -11.4 °F 74% 30.18 in 10.0 mi WSW 13.8 mph - N/A   Clear
1:54 AM -4.9 °F -24.9 °F -11.7 °F 72% 30.18 in 10.0 mi WSW 13.8 mph - N/A   Clear
2:14 AM -5.1 °F -24.3 °F -11.7 °F 73% 30.18 in 10.0 mi WSW 12.7 mph - N/A   Clear
2:34 AM -5.8 °F -25.2 °F -12.5 °F 73% 30.17 in 10.0 mi WSW 12.7 mph - N/A   Clear
2:54 AM -5.1 °F -23.5 °F -12.1 °F 72% 30.17 in 10.0 mi WSW 11.5 mph - N/A   Clear
3:13 AM -5.8 °F -21.2 °F -12.8 °F 72% 30.17 in 10.0 mi WSW 8.1 mph - N/A   Clear
3:35 AM -5.8 °F -22.4 °F -13.0 °F 71% 30.16 in 10.0 mi WSW 9.2 mph - N/A   Clear
3:54 AM -5.8 °F -27.5 °F -12.8 °F 72% 30.15 in 10.0 mi WSW 16.1 mph - N/A   Clear
4:15 AM -5.3 °F -26.1 °F -12.3 °F 72% 30.14 in 10.0 mi WSW 15.0 mph - N/A   Clear
4:34 AM -5.3 °F -24.6 °F -12.5 °F 71% 30.14 in 10.0 mi WSW 12.7 mph - N/A   Clear
4:54 AM -4.9 °F -24.1 °F -12.3 °F 71% 30.13 in 10.0 mi WSW 12.7 mph - N/A   Clear
5:14 AM -4.4 °F -22.6 °F -12.3 °F 69% 30.13 in 10.0 mi WSW 11.5 mph - N/A   Clear
5:35 AM -4.5 °F -22.8 °F -12.5 °F 69% 30.13 in 10.0 mi WSW 11.5 mph - N/A   Clear
5:54 AM -4.5 °F -22.8 °F -12.5 °F 69% 30.13 in 10.0 mi West 11.5 mph - N/A   Clear
6:14 AM -4.9 °F -22.3 °F -13.0 °F 68% 30.13 in 10.0 mi WSW 10.4 mph - N/A   Clear
6:34 AM -6.0 °F -24.6 °F -13.4 °F 70% 30.13 in 10.0 mi WSW 11.5 mph - N/A   Clear
6:54 AM -5.8 °F -23.4 °F -13.2 °F 70% 30.14 in 10.0 mi SW 10.4 mph - N/A   Clear
7:14 AM -6.0 °F -23.6 °F -13.5 °F 70% 30.15 in 10.0 mi WSW 10.4 mph - N/A   Clear
7:34 AM -5.1 °F -21.5 °F -13.0 °F 69% 30.15 in 10.0 mi WSW 9.2 mph - N/A   Clear
7:54 AM -4.9 °F -22.3 °F -13.0 °F 68% 30.15 in 10.0 mi WSW 10.4 mph - N/A   Clear
8:14 AM -4.4 °F -24.2 °F -12.5 °F 68% 30.15 in 10.0 mi SW 13.8 mph - N/A   Clear
8:34 AM -5.1 °F -22.5 °F -13.0 °F 69% 30.15 in 10.0 mi SW 10.4 mph - N/A   Clear
8:55 AM -4.2 °F -20.4 °F -11.7 °F 70% 30.16 in 10.0 mi SSW 9.2 mph - N/A   Clear
9:13 AM -5.6 °F -21.0 °F -12.6 °F 72% 30.16 in 10.0 mi SSW 8.1 mph - N/A   Clear
9:34 AM -3.3 °F -19.3 °F -10.5 °F 71% 30.16 in 10.0 mi SW 9.2 mph - N/A   Clear
9:54 AM -1.7 °F -16.2 °F -9.4 °F 70% 30.17 in 10.0 mi SW 8.1 mph - N/A   Clear
10:14 AM -0.0 °F -15.3 °F -8.5 °F 68% 30.16 in 10.0 mi SW 9.2 mph - N/A   Clear
10:34 AM 2.1 °F -14.4 °F -6.9 °F 66% 30.16 in 10.0 mi SW 11.5 mph - N/A   Clear
10:54 AM 2.7 °F -12.9 °F -7.1 °F 64% 30.16 in 10.0 mi SW 10.4 mph - N/A   Clear
11:14 AM 2.5 °F -12.2 °F -6.3 °F 67% 30.17 in 10.0 mi SSW 9.2 mph - N/A   Clear
11:35 AM 2.3 °F -12.4 °F -6.0 °F 68% 30.15 in 10.0 mi SSW 9.2 mph - N/A   Clear
11:54 AM 4.3 °F -10.9 °F -4.9 °F 66% 30.15 in 10.0 mi SW 10.4 mph - N/A   Clear
12:13 PM 6.8 °F -7.8 °F -3.8 °F 62% 30.13 in 10.0 mi SSW 10.4 mph - N/A   Clear
12:34 PM 8.1 °F -7.0 °F -3.1 °F 60% 30.13 in 10.0 mi SW 11.5 mph - N/A   Clear
12:54 PM 8.4 °F -9.2 °F -1.5 °F 64% 30.12 in 10.0 mi SSW 16.1 mph - N/A   Clear
1:14 PM 8.8 °F -6.8 °F 0.3 °F 69% 30.12 in 10.0 mi SW 12.7 mph - N/A   Clear
1:34 PM 8.8 °F -6.8 °F 0.7 °F 70% 30.11 in 10.0 mi SSW 12.7 mph - N/A   Clear
1:54 PM 9.7 °F -6.3 °F 2.3 °F 72% 30.11 in 10.0 mi SSW 13.8 mph - N/A   Clear
2:14 PM 11.1 °F -3.2 °F 3.4 °F 71% 30.09 in 10.0 mi SSW 11.5 mph - N/A   Clear
2:34 PM 11.7 °F -4.4 °F 3.6 °F 70% 30.09 in 10.0 mi SSW 15.0 mph - N/A   Clear
2:54 PM 12.0 °F -2.0 °F 4.1 °F 71% 30.09 in 10.0 mi SSW 11.5 mph 15.0 mph N/A   Clear
3:14 PM 12.0 °F -3.4 °F 4.3 °F 71% 30.08 in 10.0 mi SSW 13.8 mph - N/A   Clear
3:34 PM 12.6 °F -3.8 °F 4.8 °F 71% 30.08 in 10.0 mi SSW 16.1 mph - N/A   Clear
3:54 PM 12.2 °F -1.8 °F 5.0 °F 73% 30.08 in 10.0 mi SSW 11.5 mph - N/A   Clear
4:14 PM 12.0 °F -2.7 °F 4.8 °F 73% 30.07 in 10.0 mi SSW 12.7 mph 18.4 mph N/A   Clear
4:33 PM 12.2 °F -1.0 °F 5.4 °F 74% 30.07 in 10.0 mi SSW 10.4 mph - N/A   Clear
4:54 PM 12.2 °F -0.2 °F 5.0 °F 73% 30.07 in 10.0 mi South 9.2 mph - N/A   Clear
5:14 PM 11.3 °F -0.4 °F 4.8 °F 75% 30.07 in 10.0 mi South 8.1 mph - N/A   Clear
5:35 PM 10.2 °F -1.7 °F 4.3 °F 77% 30.06 in 10.0 mi South 8.1 mph - N/A   Clear
5:54 PM 9.3 °F -1.7 °F 3.9 °F 79% 30.07 in 10.0 mi South 6.9 mph - N/A   Clear
6:14 PM 7.0 °F -4.5 °F 2.1 °F 80% 30.07 in 10.0 mi South 6.9 mph - N/A   Clear
6:34 PM 5.0 °F -8.1 °F 1.2 °F 84% 30.07 in 10.0 mi SSE 8.1 mph - N/A   Clear
6:54 PM 5.4 °F -9.6 °F 1.6 °F 84% 30.07 in 10.0 mi South 10.4 mph - N/A   Clear
7:15 PM 5.0 °F -6.9 °F 0.7 °F 82% 30.07 in 10.0 mi South 6.9 mph - N/A   Clear
7:34 PM 3.7 °F -7.1 °F -0.6 °F 82% 30.07 in 10.0 mi South 5.8 mph - N/A   Clear
7:55 PM 3.7 °F -9.6 °F -0.8 °F 82% 30.07 in 10.0 mi South 8.1 mph - N/A   Clear
8:14 PM 3.6 °F -11.8 °F -0.9 °F 82% 30.07 in 10.0 mi South 10.4 mph - N/A   Clear
8:33 PM 3.2 °F -11.3 °F -1.5 °F 81% 30.07 in 10.0 mi South 9.2 mph - N/A   Clear
8:54 PM 2.8 °F -11.7 °F -1.5 °F 82% 30.07 in 10.0 mi South 9.2 mph - N/A   Clear
9:14 PM 2.7 °F -12.0 °F -1.8 °F 81% 30.07 in 10.0 mi South 9.2 mph - N/A   Clear
9:34 PM 1.0 °F -12.9 °F -3.1 °F 83% 30.06 in 10.0 mi South 8.1 mph - N/A   Clear
9:54 PM 1.2 °F -12.7 °F -2.9 °F 83% 30.06 in 10.0 mi South 8.1 mph - N/A   Clear
10:15 PM 1.9 °F -10.6 °F -2.6 °F 81% 30.06 in 10.0 mi South 6.9 mph - N/A   Clear
10:35 PM 1.9 °F -11.8 °F -2.6 °F 81% 30.05 in 10.0 mi South 8.1 mph - N/A   Clear
10:54 PM 1.4 °F -12.5 °F -2.7 °F 83% 30.04 in 10.0 mi South 8.1 mph - N/A   Clear
11:14 PM 1.4 °F -12.5 °F -2.9 °F 82% 30.05 in 10.0 mi South 8.1 mph - N/A   Clear
11:35 PM 1.2 °F -14.7 °F -2.9 °F 83% 30.05 in 10.0 mi South 10.4 mph - N/A   Clear
11:55 PM 0.5 °F -13.6 °F -3.5 °F 83% 30.04 in 10.0 mi South 8.1 mph - N/A   Clear